Simultaneous Nadir Overpasses (SNOs) Predictions

Prediction of SNOs between GOES-15 and TERRA Satellite Orbit:

Table of predicted SNOs for the next 14.0 days since TLE Epoch: 9/7/2024
Index Date Time (GOES-15) GOES-15 Lat,Lon TERRA Lat,Lon Distance(km) Time Diff (sec)
1 09/07/2024 17:35:49 0.25, 61.49 0.21, 61.17 35.80 80
2 09/09/2024 17:20:38 0.24, 61.48 1.07, 65.48 454.85 80
3 09/10/2024 05:37:46 -0.26, 61.35 -0.10, 60.66 78.78 80
4 09/12/2024 05:22:34 -0.25, 61.35 -0.99, 64.97 411.53 80
5 09/12/2024 17:39:50 0.27, 61.47 -0.04, 60.12 153.69 80
6 09/14/2024 17:24:38 0.26, 61.47 0.87, 64.43 336.41 80
7 09/15/2024 05:41:44 -0.28, 61.35 0.11, 59.62 197.57 80
8 09/17/2024 05:26:30 -0.27, 61.35 -0.81, 63.93 292.95 80
9 09/17/2024 17:43:46 0.29, 61.47 -0.23, 59.09 271.64 80
10 09/19/2024 17:28:30 0.29, 61.48 0.67, 63.41 219.07 80
11 09/20/2024 05:45:37 -0.30, 61.37 0.28, 58.59 315.16 80
